Location: Mt. Bigelow
(32.4165°N, 110.7345°W)
Time: 09:51:44
(UTC-07:00)

ISS - Visible Passes

Search period start: 22 October 2018 00:00
Search period end: 01 November 2018 00:00
Orbit: 403 x 408 km, 51.6° (Epoch: 23 October)

Date Brightness Start Highest point End Pass type
(mag) Time Alt. Az. Time Alt. Az. Time Alt. Az.
22 Oct -0.4 06:02:13 10° SSE 06:03:29 12° SE 06:04:44 10° ESE visible
24 Oct -2.0 05:52:48 10° SSW 05:55:47 34° SE 05:58:46 10° ENE visible
25 Oct -0.9 05:01:53 10° SSE 05:03:57 16° SE 05:06:01 10° E visible
26 Oct -3.9 05:44:57 10° SW 05:48:10 72° NW 05:51:25 10° NE visible
27 Oct -3.0 04:56:00 46° SE 04:56:13 47° SE 04:59:22 10° ENE visible
28 Oct -2.6 05:39:43 22° WNW 05:40:42 25° NW 05:43:29 10° NNE visible
29 Oct -1.7 04:50:27 21° NNE 04:50:27 21° NNE 04:51:46 10° NE visible
30 Oct -1.5 05:33:43 12° NNW 05:33:43 12° NNW 05:34:44 10° N visible
